Weather in Krasny Ostrov

Russia / Nizhny Novgorod Oblast'     55°19′34″N   46°02′05″E
temp.,
°C
wind,
m/s
gust,
m/s
humid.,
%
clouds,
%
prec.,
mm/h
press.,
hPa
HPBL,
m
5 august, thu
thu500:00+19nw4849100 0.0 1014207
03:00+16nnw346120 0.0 101578
06:00+16nnw2567100 0.0 1017153
09:00+21nnw4551100 0.0 1017655
12:00+23nw57375 0.0 10171898
15:00+24nw563719 0.0 10172394
18:00+22nnw24496 0.0 1017123
21:00+17n2259100 0.0 101713
6 august, fri
fri600:00+15e11584 0.0 101711
03:00+14ese22605 0.0 101811
06:00+16se126074 0.0 101885
09:00+21se34458 0.0 1018459
12:00+24sse343751 0.0 10171331
15:00+25ssw4440100 0.0 10161720
18:00+23sse2254100 0.0 101650
21:00+20ese3553100 0.0 101691
7 august, sat
sat700:00+19ese395534 0.0 1015215
03:00+16se365940 0.0 1016107
06:00+18se4852100 0.0 1016230
09:00+18se485490 0.0 1017231
12:00+22s365044 0.0 1017296
15:00+25s3647100 0.0 1015388
18:00+24se225517 0.0 101547
21:00+20se22605 0.0 101615
8 august, sun
sun800:00+18ese36695 0.0 1017104
03:00+17se37655 0.0 1017100
06:00+18se386383 0.0 1017158
09:00+24sse4546100 0.0 1017391
12:00+29sse4535100 0.0 1017888
15:00+28s464088 0.0 1017560
18:00+27sse344598 0.0 101689
21:00+23sse3350100 0.0 101743
9 august, mon
mon900:00+22s2250100 0.0 101733
03:00+21ese0055100 0.0 101811
06:00+21ssw1157100 0.0 101817
09:00+24ssw235342 0.0 101886
12:00+27ssw364457 0.0 1018580
15:00+29sw243964 0.0 1017666
18:00+28wsw11466 0.0 101617
21:00+23s33565 0.0 101627